This is the latest recevied weather packets stored in our database for station/object N6WDO. If no packets are shown the sender has not sent any weather packets the latest 1 day(s).
| Time | Temp. | Humidity | Pressure | Rain* | Wind** | Luminosity | Snow |
|---|---|---|---|---|---|---|---|
| 1778019112 | 14.44° C | 67% | 1016.5 hPa | 0 mm | 0 m/s | 134 W/m² | - |
| 1778018809 | 14.44° C | 66% | 1016.7 hPa | 0 mm | 0 m/s | 124 W/m² | - |
| 1778018507 | 14.44° C | 66% | 1016.7 hPa | 0 mm | 0 m/s | 133 W/m² | - |
| 1778018204 | 14.44° C | 66% | 1016.9 hPa | 0 mm | 0.45 m/s, 47° | 130 W/m² | - |
| 1778017902 | 14.44° C | 67% | 1016.7 hPa | 0 mm | 0 m/s | 125 W/m² | - |
| 1778017600 | 14.44° C | 68% | 1016.6 hPa | 0 mm | 0.45 m/s, 329° | 132 W/m² | - |
| 1778017297 | 14.44° C | 68% | 1016.8 hPa | 0 mm | 0.45 m/s, 64° | 144 W/m² | - |
| 1778016995 | 14.44° C | 69% | 1016.9 hPa | 0 mm | 0 m/s | 146 W/m² | - |
| 1778016691 | 14.44° C | 71% | 1016.7 hPa | 0 mm | 0 m/s | 127 W/m² | - |
| 1778016387 | 14.44° C | 70% | 1017.1 hPa | 0 mm | 0.89 m/s, 42° | 112 W/m² | - |
| 1778016085 | 15° C | 70% | 1016.9 hPa | 0 mm | 0 m/s | 110 W/m² | - |
| 1778015781 | 15° C | 68% | 1016.8 hPa | 0 mm | 0 m/s | 108 W/m² | - |
| 1778015479 | 15° C | 68% | 1016.8 hPa | 0 mm | 0 m/s | 123 W/m² | - |
| 1778015175 | 14.44° C | 68% | 1016.6 hPa | 0 mm | 0 m/s | 152 W/m² | - |
| 1778014872 | 14.44° C | 72% | 1016.7 hPa | 0 mm | 0 m/s | 192 W/m² | - |
| 1778014570 | 14.44° C | 69% | 1016.5 hPa | 0 mm | 0.45 m/s, 338° | 180 W/m² | - |
| 1778014267 | 13.89° C | 72% | 1016.8 hPa | 0 mm | 0 m/s | 164 W/m² | - |
| 1778013964 | 13.89° C | 76% | 1016.5 hPa | 0 mm | 0.45 m/s, 104° | 166 W/m² | - |
| 1778013662 | 13.89° C | 76% | 1016.7 hPa | 0 mm | 0 m/s | 174 W/m² | - |
| 1778013358 | 13.89° C | 76% | 1016.6 hPa | 0 mm | 0 m/s | 143 W/m² | - |
| 1778013055 | 13.89° C | 76% | 1016.5 hPa | 0 mm | 0.45 m/s, 46° | 110 W/m² | - |
| 1778012751 | 13.89° C | 77% | 1016.5 hPa | 0 mm | 0 m/s | 86 W/m² | - |
| 1778012447 | 13.89° C | 74% | 1016.6 hPa | 0 mm | 0.89 m/s, 332° | 111 W/m² | - |
| 1778012144 | 13.89° C | 72% | 1016.7 hPa | 0 mm | 0.45 m/s, 18° | 155 W/m² | - |
| 1778011842 | 13.89° C | 73% | 1016.6 hPa | 0 mm | 0 m/s | 153 W/m² | - |
* Rain latest hour (hover to see other rain measurements)
** Current wind speed in m/s (hover to see current wind gust speed)